,,,PA_Meas_PMT16A,,PR_Meas_QMR101_102,,RH_Meas_QMH101,,SR_Meas_QMS101,,TA_Meas_QMH101,,GenWind,,GenWind,
date,time,status,PA,status,PR,status,RH,status,SR,status,TA,status,DirAvg,status,SpdAvg,
2010-09-13, 00:00:04,VALID,1005.18,VALID,0,INVALID,123.008,VALID,0,VALID,23.7425,VALID,356,VALID,0,
2010-09-13, 00:01:04,VALID,1005.17,VALID,0,INVALID,122.947,VALID,0,VALID,23.723,VALID,356,VALID,0,
2010-09-13, 00:02:04,VALID,1005.17,VALID,0,INVALID,122.985,VALID,0,VALID,23.7212,VALID,356,VALID,0,
2010-09-13, 00:03:04,VALID,1005.18,VALID,0,INVALID,123.008,VALID,0,VALID,23.7212,VALID,356,VALID,0,
2010-09-13, 00:04:04,VALID,1005.16,VALID,0,INVALID,122.985,VALID,0,VALID,23.7212,VALID,5,VALID,0.467187,
2010-09-13, 00:05:04,VALID,1005.16,VALID,0,INVALID,123.008,VALID,0,VALID,23.7212,VALID,5,VALID,0.344531,
2010-09-13, 00:06:04,VALID,1005.18,VALID,0,INVALID,123.069,VALID,0,VALID,23.7017,VALID,5,VALID,0.345703,
2010-09-13, 00:07:04,VALID,1005.19,VALID,0,INVALID,123.138,VALID,0,VALID,23.723,VALID,5,VALID,0.245312,
2010-09-13, 00:08:04,VALID,1005.23,VALID,0,INVALID,123.145,VALID,0,VALID,23.723,VALID,5,VALID,0.201172,
2010-09-13, 00:09:04,VALID,1005.19,VALID,0,INVALID,123.206,VALID,0,VALID,23.723,VALID,5,VALID,0,
2010-09-13, 00:10:04,VALID,1005.21,VALID,0,INVALID,123.298,VALID,0,VALID,23.6823,VALID,5,VALID,0,
2010-09-13, 00:11:04,VALID,1005.2,VALID,0,INVALID,123.367,VALID,0,VALID,23.6841,VALID,5,VALID,0,
2010-09-13, 00:12:04,VALID,1005.2,VALID,0,INVALID,123.42,VALID,0,VALID,23.6628,VALID,5,VALID,0,
2010-09-13, 00:13:04,VALID,1005.19,VALID,0,INVALID,123.451,VALID,0,VALID,23.6434,VALID,5,VALID,0,
2010-09-13, 00:14:04,VALID,1005.19,VALID,0,INVALID,123.458,VALID,0,VALID,23.6841,VALID,5,VALID,0,
2010-09-13, 00:15:04,VALID,1005.16,VALID,0,INVALID,123.473,VALID,0,VALID,23.6646,VALID,5,VALID,0,
2010-09-13, 00:16:04,VALID,1005.14,VALID,0,INVALID,123.481,VALID,0,VALID,23.6646,VALID,5,VALID,0,
2010-09-13, 00:17:04,VALID,1005.14,VALID,0,INVALID,123.527,VALID,0,VALID,23.6239,VALID,5,VALID,0,
2010-09-13, 00:18:04,VALID,1005.14,VALID,0,INVALID,123.573,VALID,0,VALID,23.6239,VALID,5,VALID,0,
2010-09-13, 00:19:04,VALID,1005.14,VALID,0,INVALID,123.634,VALID,0,VALID,23.6239,VALID,5,VALID,0,
2010-09-13, 00:20:04,VALID,1005.14,VALID,0,INVALID,123.657,VALID,0,VALID,23.6257,VALID,5,VALID,0,
2010-09-13, 00:21:04,VALID,1005.15,VALID,0,INVALID,123.618,VALID,0,VALID,23.6044,VALID,5,VALID,0,
2010-09-13, 00:22:04,VALID,1005.14,VALID,0,INVALID,123.603,VALID,0,VALID,23.6452,VALID,5,VALID,0,
2010-09-13, 00:23:04,VALID,1005.15,VALID,0,INVALID,123.595,VALID,0,VALID,23.6239,VALID,5,VALID,0,
2010-09-13, 00:24:04,VALID,1005.17,VALID,0,INVALID,123.595,VALID,0,VALID,23.6452,VALID,5,VALID,0,
2010-09-13, 00:25:04,VALID,1005.17,VALID,0,INVALID,123.641,VALID,0,VALID,23.6239,VALID,5,VALID,0,
2010-09-13, 00:26:04,VALID,1005.19,VALID,0,INVALID,123.679,VALID,0,VALID,23.6469,VALID,5,VALID,0,
2010-09-13, 00:27:04,VALID,1005.17,VALID,0,INVALID,123.74,VALID,0,VALID,23.6257,VALID,5,VALID,0,
2010-09-13, 00:28:04,VALID,1005.15,VALID,0,INVALID,123.786,VALID,0,VALID,23.6239,VALID,5,VALID,0,
2010-09-13, 00:29:04,VALID,1005.16,VALID,0,INVALID,123.855,VALID,0,VALID,23.6257,VALID,5,VALID,0,
2010-09-13, 00:30:04,VALID,1005.16,VALID,0,INVALID,123.931,VALID,0,VALID,23.585,VALID,5,VALID,0,
2010-09-13, 00:31:04,VALID,1005.18,VALID,0,INVALID,123.992,VALID,0,VALID,23.6062,VALID,5,VALID,0,
2010-09-13, 00:32:04,VALID,1005.18,VALID,0,INVALID,124.023,VALID,0,VALID,23.5868,VALID,5,VALID,0,
2010-09-13, 00:33:04,VALID,1005.18,VALID,0,INVALID,124.061,VALID,0,VALID,23.5868,VALID,5,VALID,0,
2010-09-13, 00:34:04,VALID,1005.14,VALID,0,INVALID,124.061,VALID,0,VALID,23.5673,VALID,5,VALID,0,
2010-09-13, 00:35:04,VALID,1005.14,VALID,0,INVALID,124.038,VALID,0,VALID,23.5655,VALID,5,VALID,0,
2010-09-13, 00:36:04,VALID,1005.12,VALID,0,INVALID,123.985,VALID,0,VALID,23.5655,VALID,5,VALID,0,
2010-09-13, 00:37:04,VALID,1005.11,VALID,0,INVALID,123.946,VALID,0,VALID,23.5868,VALID,5,VALID,0,
2010-09-13, 00:38:04,VALID,1005.08,VALID,0,INVALID,123.977,VALID,0,VALID,23.5673,VALID,5,VALID,0,
2010-09-13, 00:39:04,VALID,1005.1,VALID,0,INVALID,124.03,VALID,0,VALID,23.5266,VALID,5,VALID,0,
2010-09-13, 00:40:04,VALID,1005.08,VALID,0,INVALID,124.03,VALID,0,VALID,23.5266,VALID,5,VALID,0,
2010-09-13, 00:41:04,VALID,1005.06,VALID,0,INVALID,124.03,VALID,0,VALID,23.5266,VALID,5,VALID,0,
2010-09-13, 00:42:04,VALID,1005.06,VALID,0,INVALID,124.068,VALID,0,VALID,23.5284,VALID,5,VALID,0,
2010-09-13, 00:43:04,VALID,1005.03,VALID,0,INVALID,124.084,VALID,0,VALID,23.4877,VALID,5,VALID,0,
2010-09-13, 00:44:04,VALID,1005.01,VALID,0,INVALID,123.969,VALID,0,VALID,23.5284,VALID,19,VALID,0.473828,
2010-09-13, 00:45:04,VALID,1005.02,VALID,0,INVALID,123.992,VALID,0,VALID,23.5071,VALID,19,VALID,0.427734,
2010-09-13, 00:46:04,VALID,1004.99,VALID,0,INVALID,124.053,VALID,0,VALID,23.4682,VALID,19,VALID,0.511719,
2010-09-13, 00:47:04,VALID,1004.98,VALID,0,INVALID,124.061,VALID,0,VALID,23.47,VALID,19,VALID,0.551562,
2010-09-13, 00:48:04,VALID,1005.01,VALID,0,INVALID,124.053,VALID,0,VALID,23.47,VALID,12,VALID,0.405078,
2010-09-13, 00:49:04,VALID,1004.96,VALID,0,INVALID,124.068,VALID,0,VALID,23.4487,VALID,12,VALID,0.507031,
2010-09-13, 00:50:04,VALID,1004.91,VALID,0,INVALID,124.099,VALID,0,VALID,23.4098,VALID,12,VALID,0.554688,
2010-09-13, 00:51:04,VALID,1004.95,VALID,0,INVALID,124.122,VALID,0,VALID,23.3921,VALID,6,VALID,0.746094,
2010-09-13, 00:52:04,VALID,1004.92,VALID,0,INVALID,123.87,VALID,0,VALID,23.4311,VALID,354,VALID,0.788672,
2010-09-13, 00:53:04,VALID,1004.91,VALID,0,INVALID,123.779,VALID,0,VALID,23.4098,VALID,353,VALID,0.516406,
2010-09-13, 00:54:04,VALID,1004.9,VALID,0,INVALID,123.695,VALID,0,VALID,23.4098,VALID,346,VALID,0.560938,
2010-09-13, 00:55:04,VALID,1004.9,VALID,0,INVALID,123.542,VALID,0,VALID,23.4098,VALID,346,VALID,0.530469,
2010-09-13, 00:56:04,VALID,1004.91,VALID,0,INVALID,123.527,VALID,0,VALID,23.4293,VALID,346,VALID,0.333203,
2010-09-13, 00:57:04,VALID,1004.93,VALID,0,INVALID,123.527,VALID,0,VALID,23.3904,VALID,346,VALID,0.269922,
2010-09-13, 00:58:04,VALID,1004.92,VALID,0,INVALID,123.489,VALID,0,VALID,23.3904,VALID,346,VALID,0.182812,
2010-09-13, 00:59:04,VALID,1004.96,VALID,0,INVALID,123.42,VALID,0,VALID,23.4116,VALID,346,VALID,0.313672,
2010-09-13, 01:00:04,VALID,1004.93,VALID,0,INVALID,123.382,VALID,0,VALID,23.4116,VALID,347,VALID,0.466406,
2010-09-13, 01:01:04,VALID,1004.91,VALID,0,INVALID,123.351,VALID,0,VALID,23.3709,VALID,346,VALID,0.426953,
2010-09-13, 01:02:04,VALID,1004.9,VALID,0,INVALID,123.374,VALID,0,VALID,23.3921,VALID,347,VALID,0.4,
2010-09-13, 01:03:04,VALID,1004.87,VALID,0,INVALID,123.367,VALID,0,VALID,23.3709,VALID,346,VALID,0.431641,
2010-09-13, 01:04:04,VALID,1004.88,VALID,0,INVALID,123.405,VALID,0,VALID,23.3514,VALID,350,VALID,0.544141,
2010-09-13, 01:05:04,VALID,1004.88,VALID,0,INVALID,123.374,VALID,0,VALID,23.3125,VALID,351,VALID,0.499609,
2010-09-13, 01:06:04,VALID,1004.8,VALID,0,INVALID,123.336,VALID,0,VALID,23.332,VALID,351,VALID,0.431641,
2010-09-13, 01:07:04,VALID,1004.85,VALID,0,INVALID,123.351,VALID,0,VALID,23.3337,VALID,351,VALID,0.511719,
2010-09-13, 01:08:04,VALID,1004.81,VALID,0,INVALID,123.29,VALID,0,VALID,23.3125,VALID,351,VALID,0.458203,
2010-09-13, 01:09:04,VALID,1004.8,VALID,0,INVALID,123.252,VALID,0,VALID,23.3125,VALID,351,VALID,0.515625,
2010-09-13, 01:10:04,VALID,1004.82,VALID,0,INVALID,123.161,VALID,0,VALID,23.2931,VALID,351,VALID,0.386719,
2010-09-13, 01:11:04,VALID,1004.8,VALID,0,INVALID,123.054,VALID,0,VALID,23.3125,VALID,351,VALID,0.4375,
2010-09-13, 01:12:04,VALID,1004.78,VALID,0,INVALID,123.008,VALID,0,VALID,23.3337,VALID,351,VALID,0.352734,
2010-09-13, 01:13:04,VALID,1004.76,VALID,0,INVALID,122.993,VALID,0,VALID,23.2931,VALID,351,VALID,0,
2010-09-13, 01:14:04,VALID,1004.76,VALID,0,INVALID,122.97,VALID,0,VALID,23.2931,VALID,351,VALID,0,
2010-09-13, 01:15:04,VALID,1004.72,VALID,0,INVALID,122.863,VALID,0,VALID,23.2931,VALID,351,VALID,0,
2010-09-13, 01:16:04,VALID,1004.72,VALID,0,INVALID,122.733,VALID,0,VALID,23.3125,VALID,351,VALID,0,
2010-09-13, 01:17:04,VALID,1004.7,VALID,0,INVALID,122.642,VALID,0,VALID,23.332,VALID,351,VALID,0,
2010-09-13, 01:18:04,VALID,1004.69,VALID,0,INVALID,122.55,VALID,0,VALID,23.3514,VALID,351,VALID,0,
2010-09-13, 01:19:04,VALID,1004.69,VALID,0,INVALID,122.459,VALID,0,VALID,23.3709,VALID,351,VALID,0,
2010-09-13, 01:20:04,VALID,1004.69,VALID,0,INVALID,122.444,VALID,0,VALID,23.3497,VALID,351,VALID,0,
2010-09-13, 01:21:04,VALID,1004.7,VALID,0,INVALID,122.489,VALID,0,VALID,23.332,VALID,351,VALID,0,
2010-09-13, 01:22:04,VALID,1004.74,VALID,0,INVALID,122.451,VALID,0,VALID,23.3302,VALID,351,VALID,0,
2010-09-13, 01:23:04,VALID,1004.74,VALID,0,INVALID,122.497,VALID,0,VALID,23.3107,VALID,351,VALID,0,
2010-09-13, 01:24:04,VALID,1004.74,VALID,0,INVALID,122.474,VALID,0,VALID,23.3125,VALID,351,VALID,0,
2010-09-13, 01:25:04,VALID,1004.74,VALID,0,INVALID,122.474,VALID,0,VALID,23.3125,VALID,351,VALID,0,
2010-09-13, 01:26:04,VALID,1004.76,VALID,0,INVALID,122.451,VALID,0,VALID,23.2913,VALID,351,VALID,0,
2010-09-13, 01:27:04,VALID,1004.73,VALID,0,INVALID,122.405,VALID,0,VALID,23.3125,VALID,351,VALID,0,
2010-09-13, 01:28:04,VALID,1004.69,VALID,0,INVALID,122.291,VALID,0,VALID,23.3107,VALID,351,VALID,0,
2010-09-13, 01:29:04,VALID,1004.7,VALID,0,INVALID,122.215,VALID,0,VALID,23.3514,VALID,351,VALID,0,
2010-09-13, 01:30:04,VALID,1004.69,VALID,0,INVALID,121.986,VALID,0,VALID,23.3921,VALID,351,VALID,0,
2010-09-13, 01:31:04,VALID,1004.7,VALID,0,INVALID,121.81,VALID,0,VALID,23.4293,VALID,351,VALID,0,
2010-09-13, 01:32:04,VALID,1004.71,VALID,0,INVALID,121.841,VALID,0,VALID,23.4293,VALID,351,VALID,0,
2010-09-13, 01:33:04,VALID,1004.71,VALID,0,INVALID,122.085,VALID,0,VALID,23.3904,VALID,351,VALID,0,
2010-09-13, 01:34:04,VALID,1004.69,VALID,0,INVALID,122.108,VALID,0,VALID,23.3904,VALID,351,VALID,0,
2010-09-13, 01:35:04,VALID,1004.71,VALID,0,INVALID,122.154,VALID,0,VALID,23.3302,VALID,351,VALID,0,
2010-09-13, 01:36:04,VALID,1004.72,VALID,0,INVALID,122.192,VALID,0,VALID,23.3514,VALID,351,VALID,0,
2010-09-13, 01:37:04,VALID,1004.69,VALID,0,INVALID,122.184,VALID,0,VALID,23.3514,VALID,351,VALID,0,
2010-09-13, 01:38:04,VALID,1004.7,VALID,0,INVALID,122.161,VALID,0.100563,VALID,23.3514,VALID,351,VALID,0,
2010-09-13, 01:39:04,VALID,1004.67,VALID,0,INVALID,122.36,VALID,0,VALID,23.3125,VALID,352,VALID,0,
2010-09-13, 01:40:04,VALID,1004.64,VALID,0,INVALID,122.444,VALID,0,VALID,23.2948,VALID,352,VALID,0.846094,
2010-09-13, 01:41:04,VALID,1004.63,VALID,0,INVALID,122.184,VALID,0.100563,VALID,23.3337,VALID,349,VALID,0.862891,
2010-09-13, 01:42:04,VALID,1004.61,VALID,0,INVALID,122.131,VALID,0,VALID,23.3125,VALID,345,VALID,0.896875,
2010-09-13, 01:43:04,VALID,1004.59,VALID,0,INVALID,122.177,VALID,0,VALID,23.3125,VALID,344,VALID,0.769531,
2010-09-13, 01:44:04,VALID,1004.58,VALID,0,INVALID,121.91,VALID,0,VALID,23.3514,VALID,354,VALID,0.938281,
2010-09-13, 01:45:04,VALID,1004.58,VALID,0,INVALID,121.665,VALID,0,VALID,23.4098,VALID,336,VALID,0.578906,
2010-09-13, 01:46:04,VALID,1004.6,VALID,0,INVALID,121.459,VALID,0,VALID,23.4487,VALID,349,VALID,0.770312,
2010-09-13, 01:47:04,VALID,1004.59,VALID,0,INVALID,121.368,VALID,0,VALID,23.5089,VALID,353,VALID,0.802344,
2010-09-13, 01:48:04,VALID,1004.59,VALID,0,INVALID,121.314,VALID,0,VALID,23.5071,VALID,353,VALID,0.766797,
2010-09-13, 01:49:04,VALID,1004.57,VALID,0,INVALID,121.589,VALID,0,VALID,23.4877,VALID,353,VALID,0.672266,
2010-09-13, 01:50:04,VALID,1004.6,VALID,0,INVALID,121.81,VALID,0,VALID,23.4487,VALID,353,VALID,0.477734,
2010-09-13, 01:51:04,VALID,1004.58,VALID,0,INVALID,121.955,VALID,0,VALID,23.4293,VALID,353,VALID,0.373828,
2010-09-13, 01:52:04,VALID,1004.58,VALID,0,INVALID,122.001,VALID,0,VALID,23.4098,VALID,353,VALID,0.224609,
2010-09-13, 01:53:04,VALID,1004.61,VALID,0,INVALID,122.062,VALID,0,VALID,23.4098,VALID,353,VALID,0,
2010-09-13, 01:54:04,VALID,1004.6,VALID,0,INVALID,122.108,VALID,0,VALID,23.4098,VALID,353,VALID,0,
2010-09-13, 01:55:04,VALID,1004.6,VALID,0,INVALID,122.131,VALID,0,VALID,23.4098,VALID,353,VALID,0,
2010-09-13, 01:56:04,VALID,1004.6,VALID,0,INVALID,122.177,VALID,0,VALID,23.4311,VALID,353,VALID,0,
2010-09-13, 01:57:04,VALID,1004.57,VALID,0,INVALID,122.215,VALID,0,VALID,23.4098,VALID,357,VALID,0,
2010-09-13, 01:58:04,VALID,1004.54,VALID,0,INVALID,122.352,VALID,0,VALID,23.3921,VALID,358,VALID,0,
2010-09-13, 01:59:04,VALID,1004.56,VALID,0,INVALID,122.505,VALID,0.100563,VALID,23.3532,VALID,358,VALID,0,
2010-09-13, 02:00:04,VALID,1004.55,VALID,0,INVALID,122.558,VALID,0,VALID,23.2931,VALID,358,VALID,0,
2010-09-13, 02:01:04,VALID,1004.54,VALID,0,INVALID,122.566,VALID,0,VALID,23.2931,VALID,358,VALID,0,
2010-09-13, 02:02:04,VALID,1004.58,VALID,0,INVALID,122.52,VALID,0,VALID,23.2931,VALID,358,VALID,0,
2010-09-13, 02:03:04,VALID,1004.57,VALID,0,INVALID,122.466,VALID,0,VALID,23.2736,VALID,358,VALID,0,
2010-09-13, 02:04:04,VALID,1004.55,VALID,0,INVALID,122.482,VALID,0,VALID,23.2948,VALID,358,VALID,0,
2010-09-13, 02:05:04,VALID,1004.52,VALID,0,INVALID,122.489,VALID,0,VALID,23.2736,VALID,358,VALID,0,
2010-09-13, 02:06:04,VALID,1004.49,VALID,0,INVALID,122.497,VALID,0,VALID,23.2541,VALID,358,VALID,0,
2010-09-13, 02:07:04,VALID,1004.45,VALID,0,INVALID,122.52,VALID,0,VALID,23.2347,VALID,358,VALID,0,
2010-09-13, 02:08:04,VALID,1004.45,VALID,0,INVALID,122.444,VALID,0,VALID,23.2347,VALID,358,VALID,0,
2010-09-13, 02:09:04,VALID,1004.4,VALID,0,INVALID,122.444,VALID,0,VALID,23.2347,VALID,358,VALID,0,
2010-09-13, 02:10:04,VALID,1004.4,VALID,0,INVALID,122.398,VALID,0,VALID,23.2364,VALID,358,VALID,0,
2010-09-13, 02:11:04,VALID,1004.37,VALID,0,INVALID,122.451,VALID,0.100563,VALID,23.2152,VALID,358,VALID,0,
2010-09-13, 02:12:04,VALID,1004.34,VALID,0,INVALID,122.428,VALID,0,VALID,23.217,VALID,358,VALID,0,
2010-09-13, 02:13:04,VALID,1004.36,VALID,0,INVALID,122.39,VALID,0,VALID,23.1763,VALID,358,VALID,0,
2010-09-13, 02:14:04,VALID,1004.32,VALID,0,INVALID,122.321,VALID,0.100563,VALID,23.1763,VALID,358,VALID,0,
2010-09-13, 02:15:04,VALID,1004.32,VALID,0,INVALID,122.154,VALID,0,VALID,23.1957,VALID,358,VALID,0,
2010-09-13, 02:16:04,VALID,1004.35,VALID,0,INVALID,122.062,VALID,0,VALID,23.1957,VALID,358,VALID,0,
2010-09-13, 02:17:04,VALID,1004.34,VALID,0,INVALID,122.054,VALID,0,VALID,23.1957,VALID,358,VALID,0,
2010-09-13, 02:18:04,VALID,1004.33,VALID,0,INVALID,122.07,VALID,0,VALID,23.1763,VALID,358,VALID,0,
2010-09-13, 02:19:04,VALID,1004.33,VALID,0,INVALID,121.963,VALID,0,VALID,23.1957,VALID,358,VALID,0,
2010-09-13, 02:20:04,VALID,1004.35,VALID,0,INVALID,121.955,VALID,0,VALID,23.1763,VALID,358,VALID,0,
2010-09-13, 02:21:04,VALID,1004.34,VALID,0,INVALID,121.887,VALID,0,VALID,23.1957,VALID,358,VALID,0,
2010-09-13, 02:22:04,VALID,1004.32,VALID,0,INVALID,121.864,VALID,0,VALID,23.1568,VALID,358,VALID,0,
2010-09-13, 02:23:04,VALID,1004.33,VALID,0,INVALID,121.826,VALID,0,VALID,23.1568,VALID,358,VALID,0,
2010-09-13, 02:24:04,VALID,1004.29,VALID,0,INVALID,121.772,VALID,0.100563,VALID,23.1763,VALID,358,VALID,0,
2010-09-13, 02:25:04,VALID,1004.25,VALID,0,INVALID,121.826,VALID,0,VALID,23.1179,VALID,358,VALID,0,
2010-09-13, 02:26:04,VALID,1004.21,VALID,0,INVALID,121.871,VALID,0,VALID,23.0984,VALID,358,VALID,0,
2010-09-13, 02:27:04,VALID,1004.19,VALID,0,INVALID,121.765,VALID,0.100563,VALID,23.0984,VALID,358,VALID,0,
2010-09-13, 02:28:04,VALID,1004.21,VALID,0,INVALID,121.65,VALID,0,VALID,23.1179,VALID,358,VALID,0,
2010-09-13, 02:29:04,VALID,1004.19,VALID,0,INVALID,121.642,VALID,0,VALID,23.1002,VALID,358,VALID,0,
2010-09-13, 02:30:04,VALID,1004.18,VALID,0,INVALID,121.742,VALID,0,VALID,23.0595,VALID,358,VALID,0,
2010-09-13, 02:31:04,VALID,1004.16,VALID,0,INVALID,121.734,VALID,0,VALID,23.0401,VALID,358,VALID,0,
2010-09-13, 02:32:04,VALID,1004.16,VALID,0,INVALID,121.734,VALID,0,VALID,23.0418,VALID,358,VALID,0,
2010-09-13, 02:33:04,VALID,1004.16,VALID,0,INVALID,121.711,VALID,0,VALID,23.0012,VALID,358,VALID,0,
2010-09-13, 02:34:04,VALID,1004.12,VALID,0,INVALID,121.65,VALID,0,VALID,23.0012,VALID,358,VALID,0,
2010-09-13, 02:35:04,VALID,1004.16,VALID,0,INVALID,121.612,VALID,0,VALID,22.9817,VALID,358,VALID,0,
2010-09-13, 02:36:04,VALID,1004.15,VALID,0,INVALID,121.551,VALID,0,VALID,22.9817,VALID,358,VALID,0,
2010-09-13, 02:37:04,VALID,1004.14,VALID,0,INVALID,121.406,VALID,0,VALID,22.9817,VALID,358,VALID,0,
2010-09-13, 02:38:04,VALID,1004.18,VALID,0,INVALID,121.284,VALID,0,VALID,23.0418,VALID,358,VALID,0,
2010-09-13, 02:39:04,VALID,1004.15,VALID,0,INVALID,121.17,VALID,0,VALID,23.0206,VALID,358,VALID,0,
2010-09-13, 02:40:04,VALID,1004.13,VALID,0,INVALID,121.078,VALID,0,VALID,23.0807,VALID,358,VALID,0,
2010-09-13, 02:41:04,VALID,1004.12,VALID,0,INVALID,120.979,VALID,0,VALID,23.0595,VALID,358,VALID,0,
2010-09-13, 02:42:04,VALID,1004.13,VALID,0,INVALID,120.933,VALID,0,VALID,23.0595,VALID,358,VALID,0,
2010-09-13, 02:43:04,VALID,1004.11,VALID,0,INVALID,120.819,VALID,0,VALID,23.079,VALID,358,VALID,0,
2010-09-13, 02:44:04,VALID,1004.1,VALID,0,INVALID,120.788,VALID,0,VALID,23.1002,VALID,358,VALID,0,
2010-09-13, 02:45:04,VALID,1004.09,VALID,0,INVALID,120.635,VALID,0,VALID,23.0984,VALID,358,VALID,0,
2010-09-13, 02:46:04,VALID,1004.08,VALID,0,INVALID,120.658,VALID,0,VALID,23.1197,VALID,358,VALID,0,
2010-09-13, 02:47:04,VALID,1004.07,VALID,0,INVALID,120.727,VALID,0,VALID,23.079,VALID,358,VALID,0,
2010-09-13, 02:48:04,VALID,1004.05,VALID,0,INVALID,120.651,VALID,0.100563,VALID,23.0772,VALID,358,VALID,0,
2010-09-13, 02:49:04,VALID,1004.04,VALID,0,INVALID,120.567,VALID,0,VALID,23.0967,VALID,358,VALID,0,
2010-09-13, 02:50:04,VALID,1004.02,VALID,0,INVALID,120.559,VALID,0.100563,VALID,23.0984,VALID,358,VALID,0,
2010-09-13, 02:51:04,VALID,1003.98,VALID,0,INVALID,120.605,VALID,0,VALID,23.079,VALID,358,VALID,0,
2010-09-13, 02:52:04,VALID,1003.95,VALID,0,INVALID,120.567,VALID,0.100563,VALID,23.0984,VALID,358,VALID,0,
2010-09-13, 02:53:04,VALID,1003.94,VALID,0,INVALID,120.529,VALID,0.100563,VALID,23.1197,VALID,359,VALID,0,
2010-09-13, 02:54:04,VALID,1003.93,VALID,0,INVALID,120.422,VALID,0,VALID,23.1162,VALID,358,VALID,0,
2010-09-13, 02:55:04,VALID,1003.93,VALID,0,INVALID,120.422,VALID,0,VALID,23.1179,VALID,6,VALID,0,
2010-09-13, 02:56:04,VALID,1003.87,VALID,0,INVALID,120.483,VALID,0,VALID,23.0984,VALID,61,VALID,0,
2010-09-13, 02:57:04,VALID,1003.85,VALID,0,INVALID,120.437,VALID,0.100563,VALID,23.0984,VALID,61,VALID,0,
2010-09-13, 02:58:04,VALID,1003.85,VALID,0,INVALID,120.422,VALID,0,VALID,23.0984,VALID,62,VALID,0,
2010-09-13, 02:59:04,VALID,1003.82,VALID,0,INVALID,120.346,VALID,0,VALID,23.1179,VALID,61,VALID,0,
2010-09-13, 03:00:04,VALID,1003.86,VALID,0,INVALID,120.231,VALID,0,VALID,23.1374,VALID,62,VALID,0,
2010-09-13, 03:01:04,VALID,1003.86,VALID,0,INVALID,120.178,VALID,0,VALID,23.1568,VALID,62,VALID,0,
2010-09-13, 03:02:04,VALID,1003.86,VALID,0,INVALID,120.086,VALID,0.100563,VALID,23.1551,VALID,61,VALID,0,
2010-09-13, 03:03:04,VALID,1003.85,VALID,0,INVALID,119.827,VALID,0,VALID,23.2541,VALID,61,VALID,0,
2010-09-13, 03:04:04,VALID,1003.82,VALID,0,INVALID,119.712,VALID,0.100563,VALID,23.2718,VALID,58,VALID,0,
2010-09-13, 03:05:04,VALID,1003.81,VALID,0,INVALID,119.567,VALID,0,VALID,23.3125,VALID,54,VALID,0,
2010-09-13, 03:06:04,VALID,1003.87,VALID,0,INVALID,119.537,VALID,0,VALID,23.3532,VALID,54,VALID,0,
2010-09-13, 03:07:04,VALID,1003.84,VALID,0,INVALID,119.514,VALID,0,VALID,23.3709,VALID,54,VALID,0,
2010-09-13, 03:08:04,VALID,1003.83,VALID,0,INVALID,119.545,VALID,0,VALID,23.3514,VALID,54,VALID,0,
2010-09-13, 03:09:04,VALID,1003.85,VALID,0,INVALID,119.56,VALID,0,VALID,23.3709,VALID,54,VALID,0,
2010-09-13, 03:10:04,VALID,1003.84,VALID,0,INVALID,119.59,VALID,0.100563,VALID,23.3709,VALID,54,VALID,0,
2010-09-13, 03:11:04,VALID,1003.84,VALID,0,INVALID,119.583,VALID,0,VALID,23.3921,VALID,54,VALID,0,
2010-09-13, 03:12:04,VALID,1003.86,VALID,0,INVALID,119.567,VALID,0.100563,VALID,23.3514,VALID,50,VALID,0,
2010-09-13, 03:13:04,VALID,1003.85,VALID,0,INVALID,119.484,VALID,0.100563,VALID,23.3904,VALID,48,VALID,0,
2010-09-13, 03:14:04,VALID,1003.84,VALID,0,INVALID,119.468,VALID,0.100563,VALID,23.3904,VALID,37,VALID,0,
2010-09-13, 03:15:04,VALID,1003.8,VALID,0,INVALID,119.484,VALID,0.100563,VALID,23.3691,VALID,37,VALID,0,
2010-09-13, 03:16:04,VALID,1003.81,VALID,0,INVALID,119.491,VALID,0.100563,VALID,23.3904,VALID,37,VALID,0,
2010-09-13, 03:17:04,VALID,1003.8,VALID,0,INVALID,119.606,VALID,0,VALID,23.3709,VALID,37,VALID,0,
2010-09-13, 03:18:04,VALID,1003.79,VALID,0,INVALID,119.758,VALID,0,VALID,23.332,VALID,37,VALID,0,
2010-09-13, 03:19:04,VALID,1003.8,VALID,0,INVALID,119.911,VALID,0,VALID,23.2931,VALID,37,VALID,0,
2010-09-13, 03:20:04,VALID,1003.74,VALID,0,INVALID,120.063,VALID,0.100563,VALID,23.2736,VALID,37,VALID,0,
2010-09-13, 03:21:04,VALID,1003.72,VALID,0,INVALID,120.086,VALID,0.100563,VALID,23.2329,VALID,37,VALID,0,
2010-09-13, 03:22:04,VALID,1003.71,VALID,0,INVALID,120.079,VALID,0.100563,VALID,23.2347,VALID,37,VALID,0,
2010-09-13, 03:23:04,VALID,1003.71,VALID,0,INVALID,120.079,VALID,0,VALID,23.2541,VALID,37,VALID,0,
2010-09-13, 03:24:04,VALID,1003.72,VALID,0,INVALID,120.132,VALID,0,VALID,23.2329,VALID,37,VALID,0,
2010-09-13, 03:25:04,VALID,1003.75,VALID,0,INVALID,120.231,VALID,0,VALID,23.194,VALID,37,VALID,0,
2010-09-13, 03:26:04,VALID,1003.73,VALID,0,INVALID,120.254,VALID,0,VALID,23.2152,VALID,37,VALID,0,
2010-09-13, 03:27:04,VALID,1003.74,VALID,0,INVALID,120.193,VALID,0,VALID,23.2134,VALID,37,VALID,0,
2010-09-13, 03:28:04,VALID,1003.74,VALID,0,INVALID,120.162,VALID,0,VALID,23.2541,VALID,37,VALID,0,
2010-09-13, 03:29:04,VALID,1003.77,VALID,0,INVALID,120.101,VALID,0,VALID,23.2541,VALID,37,VALID,0,
2010-09-13, 03:30:04,VALID,1003.75,VALID,0,INVALID,120.162,VALID,0.100563,VALID,23.2541,VALID,37,VALID,0,
2010-09-13, 03:31:04,VALID,1003.76,VALID,0,INVALID,120.178,VALID,0.100563,VALID,23.2329,VALID,37,VALID,0,
2010-09-13, 03:32:04,VALID,1003.74,VALID,0,INVALID,120.224,VALID,0,VALID,23.2347,VALID,37,VALID,0,
2010-09-13, 03:33:04,VALID,1003.76,VALID,0,INVALID,120.239,VALID,0,VALID,23.2559,VALID,37,VALID,0,
2010-09-13, 03:34:04,VALID,1003.75,VALID,0,INVALID,120.193,VALID,0,VALID,23.2347,VALID,37,VALID,0,
2010-09-13, 03:35:04,VALID,1003.75,VALID,0,INVALID,120.3,VALID,0,VALID,23.2152,VALID,37,VALID,0,
2010-09-13, 03:36:04,VALID,1003.75,VALID,0,INVALID,120.475,VALID,0,VALID,23.1763,VALID,37,VALID,0,
2010-09-13, 03:37:04,VALID,1003.73,VALID,0,INVALID,120.59,VALID,0,VALID,23.1356,VALID,37,VALID,0,
2010-09-13, 03:38:04,VALID,1003.74,VALID,0,INVALID,120.712,VALID,0,VALID,23.1179,VALID,37,VALID,0,
2010-09-13, 03:39:04,VALID,1003.71,VALID,0,INVALID,120.689,VALID,0,VALID,23.0984,VALID,37,VALID,0,
2010-09-13, 03:40:04,VALID,1003.75,VALID,0,INVALID,120.712,VALID,0,VALID,23.0772,VALID,37,VALID,0,
2010-09-13, 03:41:04,VALID,1003.71,VALID,0,INVALID,120.719,VALID,0,VALID,23.079,VALID,37,VALID,0,
2010-09-13, 03:42:04,VALID,1003.68,VALID,0,INVALID,120.788,VALID,0,VALID,23.0383,VALID,37,VALID,0,
2010-09-13, 03:43:04,VALID,1003.72,VALID,0,INVALID,120.773,VALID,0,VALID,23.0595,VALID,37,VALID,0,
2010-09-13, 03:44:04,VALID,1003.72,VALID,0,INVALID,120.811,VALID,0,VALID,23.0401,VALID,37,VALID,0,
2010-09-13, 03:45:04,VALID,1003.69,VALID,0,INVALID,120.803,VALID,0,VALID,23.0401,VALID,37,VALID,0,
2010-09-13, 03:46:04,VALID,1003.69,VALID,0,INVALID,120.803,VALID,0,VALID,23.0401,VALID,37,VALID,0,
2010-09-13, 03:47:04,VALID,1003.71,VALID,0,INVALID,120.826,VALID,0,VALID,23.0012,VALID,37,VALID,0,
2010-09-13, 03:48:04,VALID,1003.7,VALID,0,INVALID,120.773,VALID,0,VALID,23.0012,VALID,37,VALID,0,
2010-09-13, 03:49:04,VALID,1003.67,VALID,0,INVALID,120.78,VALID,0,VALID,23.0029,VALID,37,VALID,0,
2010-09-13, 03:50:04,VALID,1003.63,VALID,0,INVALID,120.674,VALID,0,VALID,22.9817,VALID,21,VALID,0,
2010-09-13, 03:51:04,VALID,1003.63,VALID,0,INVALID,120.643,VALID,0,VALID,23.0224,VALID,9,VALID,0,